Dansville, NY
on Sunday, December 10, 2017

Sunday
       
Previous Day Next Day
Daily Summary
 ActualAverageRecord
Temperature
Mean Temperature °F °C °F °C  
Max Temperature 33°F 1°C 38°F 3°C 68°F 20°C (1966)
Min Temperature 27°F -3°C 24°F -4°C 0°F -17°C (1968)
Degree Days
Heating Degree Days 35    
Moisture
Dew Point 20°F -7°C   
Average Humidity 66    
Maximum Humidity 89    
Minimum Humidity 52    
Precipitation
Precipitation 0.00 in / 0.00 cm in / cm in / cm ()
Wind
Wind Speed 3 mph / 5 km/h   
Max Wind Speed 10 mph / 16 km/h   
Max Gust Speed 21 mph / 34 km/h   
Visibility 8 miles / 14 kilometers   
Events Snow   
Averages and records for this station are not official NWS values.
Key: T is trace of precipitation, MM is missing value
Source: NWS Daily Summary
Seasonal Weather Averages
Time(EST)TemperatureDew PointHumidity Pressure Visibility Wind DirectionWind SpeedGust SpeedPrecipitationEvents Conditions
12:54 AM 27.0°F -2.8°C 19.0°F -7.2°C 72% 29.81 in / 1009.2 hPa 10.0 miles / 16.1 kilometers Calm Calm - N/A   Overcast
1:54 AM 28.0°F -2.2°C 18.0°F -7.8°C 66% 29.81 in / 1009.2 hPa 10.0 miles / 16.1 kilometers Calm Calm - N/A   Overcast
2:54 AM 30.0°F -1.1°C 18.0°F -7.8°C 61% 29.81 in / 1009.4 hPa 10.0 miles / 16.1 kilometers NE 3.5 mph / 5.6 km/h - N/A   Overcast
3:49 AM 30.2°F -1.0°C 19.4°F -7.0°C 64% 29.77 in / 1008.0 hPa 9.0 miles / 14.5 kilometers Calm Calm - 0.00 in / 0.0 cm Snow Light Snow
3:54 AM 30.0°F -1.1°C 19.0°F -7.2°C 64% 29.82 in / 1009.6 hPa 9.0 miles / 14.5 kilometers Calm Calm - 0.00 in / 0.0 cm Snow Light Snow
4:09 AM 30.0°F -1.1°C 19.9°F -6.7°C 66% 29.77 in / 1008.0 hPa 9.0 miles / 14.5 kilometers Calm Calm - 0.00 in / 0.0 cm Snow Light Snow
4:16 AM 30.0°F -1.1°C 19.9°F -6.7°C 66% 29.77 in / 1008.0 hPa 9.0 miles / 14.5 kilometers West 4.6 mph / 7.4 km/h - 0.00 in / 0.0 cm   Overcast
4:47 AM 30.0°F -1.1°C 21.0°F -6.1°C 69% 29.78 in / 1008.4 hPa 8.0 miles / 12.9 kilometers Calm Calm - 0.00 in / 0.0 cm Snow Light Snow
4:54 AM 30.0°F -1.1°C 21.0°F -6.1°C 69% 29.83 in / 1010.0 hPa 9.0 miles / 14.5 kilometers Calm Calm - 0.00 in / 0.0 cm   Overcast
5:54 AM 30.0°F -1.1°C 23.0°F -5.0°C 75% 29.84 in / 1010.4 hPa 7.0 miles / 11.3 kilometers Calm Calm - 0.00 in / 0.0 cm Snow Light Snow
6:54 AM 30.0°F -1.1°C 23.0°F -5.0°C 75% 29.86 in / 1011.1 hPa 8.0 miles / 12.9 kilometers WNW 5.8 mph / 9.3 km/h - 0.00 in / 0.0 cm Snow Light Snow
7:26 AM 30.0°F -1.1°C 23.0°F -5.0°C 75% 29.83 in / 1010.0 hPa 10.0 miles / 16.1 kilometers Variable 4.6 mph / 7.4 km/h - 0.00 in / 0.0 cm   Overcast
7:54 AM 30.0°F -1.1°C 21.0°F -6.1°C 69% 29.89 in / 1012.0 hPa 10.0 miles / 16.1 kilometers WNW 5.8 mph / 9.3 km/h - 0.00 in / 0.0 cm   Overcast
8:54 AM 30.0°F -1.1°C 19.0°F -7.2°C 64% 29.91 in / 1012.6 hPa 8.0 miles / 12.9 kilometers WNW 9.2 mph / 14.8 km/h - 0.00 in / 0.0 cm Snow Light Snow
9:54 AM 28.9°F -1.7°C 23.0°F -5.0°C 78% 29.92 in / 1013.2 hPa 2.5 miles / 4.0 kilometers NNW 4.6 mph / 7.4 km/h - 0.00 in / 0.0 cm Snow Light Snow
10:06 AM 28.9°F -1.7°C 23.0°F -5.0°C 78% 29.87 in / 1011.4 hPa 4.0 miles / 6.4 kilometers Variable 5.8 mph / 9.3 km/h - 0.00 in / 0.0 cm Snow Light Snow
10:54 AM 32.0°F 0.0°C 19.9°F -6.7°C 61% 29.92 in / 1013.2 hPa 10.0 miles / 16.1 kilometers West 10.4 mph / 16.7 km/h 17.3 mph / 27.8 km/h 0.00 in / 0.0 cm   Overcast
11:54 AM 32.0°F 0.0°C 21.0°F -6.1°C 64% 29.90 in / 1012.4 hPa 10.0 miles / 16.1 kilometers Variable 3.5 mph / 5.6 km/h - 0.00 in / 0.0 cm   Overcast
12:31 PM 30.9°F -0.6°C 21.9°F -5.6°C 69% 29.84 in / 1010.4 hPa 2.5 miles / 4.0 kilometers SW 8.1 mph / 13.0 km/h - 0.00 in / 0.0 cm Snow Light Snow
12:44 PM 30.9°F -0.6°C 23.0°F -5.0°C 72% 29.84 in / 1010.4 hPa 4.0 miles / 6.4 kilometers Calm Calm - 0.00 in / 0.0 cm Snow Light Snow
12:54 PM 30.9°F -0.6°C 23.0°F -5.0°C 72% 29.89 in / 1012.0 hPa 9.0 miles / 14.5 kilometers NNW 3.5 mph / 5.6 km/h - 0.00 in / 0.0 cm Snow Light Snow
1:03 PM 30.9°F -0.6°C 23.0°F -5.0°C 72% 29.83 in / 1010.0 hPa 9.0 miles / 14.5 kilometers Calm Calm - 0.00 in / 0.0 cm   Overcast
1:15 PM 30.9°F -0.6°C 23.0°F -5.0°C 72% 29.83 in / 1010.0 hPa 6.0 miles / 9.7 kilometers NW 5.8 mph / 9.3 km/h - 0.00 in / 0.0 cm Snow Light Snow
1:22 PM 30.0°F -1.1°C 25.0°F -3.9°C 82% 29.83 in / 1010.0 hPa 4.0 miles / 6.4 kilometers NNW 4.6 mph / 7.4 km/h - 0.00 in / 0.0 cm Snow Light Snow
1:54 PM 28.9°F -1.7°C 26.1°F -3.3°C 89% 29.88 in / 1011.6 hPa 7.0 miles / 11.3 kilometers Calm Calm - 0.00 in / 0.0 cm Snow Light Snow
2:54 PM 33.1°F 0.6°C 18.0°F -7.8°C 54% 29.88 in / 1011.7 hPa 10.0 miles / 16.1 kilometers SW 8.1 mph / 13.0 km/h 20.7 mph / 33.3 km/h 0.00 in / 0.0 cm   Overcast
3:54 PM 33.1°F 0.6°C 17.1°F -8.3°C 52% 29.89 in / 1012.0 hPa 10.0 miles / 16.1 kilometers SSW 9.2 mph / 14.8 km/h - N/A   Overcast
4:54 PM 32.0°F 0.0°C 17.1°F -8.3°C 54% 29.91 in / 1012.9 hPa 10.0 miles / 16.1 kilometers Variable 6.9 mph / 11.1 km/h - N/A   Overcast
5:54 PM 32.0°F 0.0°C 18.0°F -7.8°C 56% 29.92 in / 1013.1 hPa 10.0 miles / 16.1 kilometers South 6.9 mph / 11.1 km/h - N/A   Overcast
6:54 PM 30.9°F -0.6°C 19.0°F -7.2°C 61% 29.93 in / 1013.5 hPa 10.0 miles / 16.1 kilometers SW 4.6 mph / 7.4 km/h - N/A   Overcast
7:54 PM 30.9°F -0.6°C 18.0°F -7.8°C 59% 29.93 in / 1013.5 hPa 10.0 miles / 16.1 kilometers Variable 6.9 mph / 11.1 km/h 18.4 mph / 29.6 km/h N/A   Overcast
8:54 PM 30.9°F -0.6°C 17.1°F -8.3°C 57% 29.94 in / 1013.6 hPa 10.0 miles / 16.1 kilometers SSW 9.2 mph / 14.8 km/h 17.3 mph / 27.8 km/h N/A   Overcast
9:54 PM 30.9°F -0.6°C 17.1°F -8.3°C 57% 29.94 in / 1013.7 hPa 10.0 miles / 16.1 kilometers SW 8.1 mph / 13.0 km/h 17.3 mph / 27.8 km/h N/A   Overcast
10:54 PM 30.9°F -0.6°C 16.0°F -8.9°C 54% 29.94 in / 1013.7 hPa 10.0 miles / 16.1 kilometers SSW 6.9 mph / 11.1 km/h - N/A   Overcast
11:54 PM 30.0°F -1.1°C 17.1°F -8.3°C 59% 29.94 in / 1013.7 hPa 10.0 miles / 16.1 kilometers North - - N/A   Overcast